User: anonymous   Login
Location: Unspecified
(0.0000°N, 0.0000°E)
Time: 19:31:14
(UTC+00:00)
Language:

STARLINK-32149 - Orbit

View from above orbital plane
View from above orbital plane
View from above satellite
View from above satellite

Ground track
Ground track

The orbit is defined by the following mean orbital elements,

1 60292U          26145.58335647 +.00000000 +00000-0 +17118-2 0 00001
2 60292  53.1606  55.4113 0001227  92.8315 176.7419 15.31669277    03
Epoch (UTC): 25 May 2026 14:00:01
Eccentricity: 0.0001227
inclination: 53.1606°
perigee height: 470 km
apogee height: 472 km
right ascension of ascending node: 55.4113°
argument of perigee: 92.8315°
revolutions per day: 15.31669277
mean anomaly at epoch: 176.7419°

The dashed part of the orbit path shows where the satellite is in the earth's shadow,  

DLR